When you browse on this site, cookies collect data to enhance your experience and personalize the content and advertising you see.
Visit our Privacy Policy to learn more. By continuing to use the site, you agree to this use of cookies and data.
  • In Portugal
  • List of Countries
  • For 7 days
  • Water Temperature
  • Weather Map
  • Weather Widgets
  • user-avatar
    Login

    Hourly Weather Canberra

    Today, 22 September, Sunday

    Time Temperature Precipitation Wind Pressure Humidity
    00:00 +10°C° 0 mm 3 mps 710 mmHg 93%
    01:00 +10°C° 0 mm 3 mps 710 mmHg 91%
    02:00 +9°C° 0 mm 3 mps 710 mmHg 91%
    03:00 +8°C° 0 mm 2 mps 710 mmHg 91%
    04:00 +8°C° 0 mm 2 mps 710 mmHg 95%
    05:00 +8°C° 0 mm 2 mps 711 mmHg 93%
    06:00 +8°C° 0 mm 2 mps 712 mmHg 91%
    07:00 +7°C° 0 mm 2 mps 712 mmHg 88%
    08:00 +9°C° 0 mm 3 mps 713 mmHg 77%
    09:00 +11°C° 0 mm 4 mps 713 mmHg 65%
    10:00 +13°C° 0 mm 3 mps 713 mmHg 56%
    11:00 +14°C° 0 mm 4 mps 713 mmHg 53%
    12:00 +15°C° 0 mm 4 mps 712 mmHg 49%
    13:00 +15°C° 0 mm 5 mps 712 mmHg 46%
    14:00 +15°C° 0 mm 5 mps 712 mmHg 48%
    15:00 +14°C° 0 mm 5 mps 712 mmHg 50%
    16:00 +14°C° 0 mm 5 mps 712 mmHg 53%
    17:00 +12°C° 0 mm 4 mps 712 mmHg 60%
    18:00 +9°C° 0 mm 3 mps 713 mmHg 67%
    19:00 +7°C° 0 mm 2 mps 713 mmHg 75%
    20:00 +7°C° 0 mm 2 mps 713 mmHg 76%
    21:00 +6°C° 0 mm 2 mps 713 mmHg 77%
    22:00 +6°C° 0 mm 1 mps 713 mmHg 78%
    23:00 +5°C° 0 mm 1 mps 713 mmHg 79%

    Tomorrow, 23 September, Monday

    Time Temperature Precipitation Wind Pressure Humidity
    00:00 +5°C° 0 mm 1 mps 713 mmHg 81%
    01:00 +4°C° 0 mm 1 mps 713 mmHg 82%
    02:00 +4°C° 0 mm 1 mps 712 mmHg 84%
    03:00 +4°C° 0 mm 1 mps 712 mmHg 86%
    04:00 +3°C° 0 mm 1 mps 712 mmHg 88%
    05:00 +4°C° 0 mm 1 mps 712 mmHg 85%
    06:00 +4°C° 0 mm 2 mps 712 mmHg 81%
    07:00 +5°C° 0 mm 2 mps 713 mmHg 77%
    08:00 +5°C° 0.1 mm 4 mps 713 mmHg 75%
    09:00 +7°C° 0.1 mm 5 mps 713 mmHg 73%
    10:00 +8°C° 0.1 mm 7 mps 713 mmHg 70%
    11:00 +9°C° 0.2 mm 7 mps 712 mmHg 64%
    12:00 +10°C° 0.2 mm 7 mps 712 mmHg 58%
    13:00 +10°C° 0.2 mm 7 mps 712 mmHg 51%
    14:00 +10°C° 0.1 mm 6 mps 712 mmHg 51%
    15:00 +10°C° 0.1 mm 6 mps 712 mmHg 51%
    16:00 +10°C° 0.1 mm 5 mps 712 mmHg 51%
    17:00 +8°C° 0 mm 4 mps 713 mmHg 60%
    18:00 +7°C° 0 mm 3 mps 713 mmHg 69%
    19:00 +5°C° 0 mm 2 mps 713 mmHg 78%
    20:00 +4°C° 0 mm 2 mps 714 mmHg 83%
    21:00 +4°C° 0 mm 1 mps 714 mmHg 87%
    22:00 +3°C° 0 mm 1 mps 715 mmHg 92%
    23:00 +3°C° 0 mm 1 mps 714 mmHg 92%

    Day after tomorrow, 24 September, Tuesday

    Time Temperature Precipitation Wind Pressure Humidity
    00:00 +2°C° 0 mm 0 mps 714 mmHg 92%
    01:00 +1°C° 0 mm 0 mps 714 mmHg 92%
    02:00 +1°C° 0 mm 0 mps 714 mmHg 92%
    03:00 +1°C° 0 mm 0 mps 714 mmHg 92%
    04:00 0°C° 0 mm 0 mps 714 mmHg 92%
    05:00 +1°C° 0 mm 0 mps 715 mmHg 89%
    06:00 +2°C° 0 mm 0 mps 715 mmHg 86%
    07:00 +3°C° 0 mm 0 mps 716 mmHg 83%
    08:00 +7°C° 0 mm 1 mps 716 mmHg 74%
    09:00 +8°C° 0 mm 2 mps 716 mmHg 65%
    10:00 +11°C° 0 mm 3 mps 716 mmHg 56%
    11:00 +12°C° 0 mm 4 mps 715 mmHg 53%
    12:00 +13°C° 0 mm 5 mps 715 mmHg 50%
    13:00 +14°C° 0 mm 5 mps 714 mmHg 47%
    14:00 +14°C° 0 mm 5 mps 714 mmHg 49%
    15:00 +14°C° 0 mm 5 mps 714 mmHg 51%
    16:00 +13°C° 0 mm 5 mps 713 mmHg 52%
    17:00 +11°C° 0 mm 4 mps 714 mmHg 63%
    18:00 +8°C° 0 mm 3 mps 714 mmHg 74%
    19:00 +6°C° 0 mm 2 mps 715 mmHg 84%
    20:00 +5°C° 0 mm 2 mps 715 mmHg 87%
    21:00 +5°C° 0 mm 1 mps 715 mmHg 90%
    22:00 +3°C° 0 mm 0 mps 715 mmHg 94%
    23:00 +3°C° 0 mm 0 mps 715 mmHg 94%

    25 September, Wednesday

    Time Temperature Precipitation Wind Pressure Humidity
    00:00 +4°C° 0 mm 1 mps 715 mmHg 94%
    01:00 +4°C° 0 mm 1 mps 715 mmHg 94%
    02:00 +4°C° 0 mm 1 mps 715 mmHg 92%
    03:00 +4°C° 0 mm 0 mps 715 mmHg 90%
    04:00 +4°C° 0 mm 0 mps 715 mmHg 88%
    05:00 +5°C° 0 mm 0 mps 716 mmHg 86%
    06:00 +5°C° 0 mm 0 mps 716 mmHg 84%
    07:00 +6°C° 0 mm 0 mps 716 mmHg 82%
    08:00 +9°C° 0 mm 1 mps 717 mmHg 74%
    09:00 +11°C° 0 mm 1 mps 717 mmHg 65%
    10:00 +14°C° 0 mm 1 mps 717 mmHg 56%
    11:00 +14°C° 0 mm 1 mps 716 mmHg 55%
    12:00 +15°C° 0 mm 2 mps 716 mmHg 54%
    13:00 +15°C° 0 mm 2 mps 715 mmHg 53%
    14:00 +15°C° 0 mm 2 mps 715 mmHg 54%
    15:00 +15°C° 0 mm 2 mps 715 mmHg 56%
    16:00 +15°C° 0 mm 2 mps 714 mmHg 57%
    17:00 +13°C° 0 mm 2 mps 715 mmHg 66%
    18:00 +11°C° 0 mm 1 mps 715 mmHg 76%
    19:00 +9°C° 0 mm 1 mps 716 mmHg 86%
    20:00 +9°C° 0 mm 1 mps 716 mmHg 87%
    21:00 +9°C° 0 mm 1 mps 716 mmHg 89%
    22:00 +8°C° 0 mm 1 mps 716 mmHg 90%
    23:00 +8°C° 0 mm 1 mps 716 mmHg 91%

    26 September, Thursday

    Time Temperature Precipitation Wind Pressure Humidity
    00:00 +8°C° 0 mm 1 mps 716 mmHg 92%
    01:00 +8°C° 0 mm 1 mps 716 mmHg 93%
    02:00 +6°C° 0 mm 0 mps 715 mmHg 93%
    03:00 +6°C° 0 mm 0 mps 715 mmHg 93%
    04:00 +6°C° 0 mm 0 mps 715 mmHg 93%
    05:00 +6°C° 0 mm 0 mps 715 mmHg 92%
    06:00 +8°C° 0 mm 1 mps 715 mmHg 91%
    07:00 +8°C° 0 mm 1 mps 715 mmHg 90%
    08:00 +9°C° 0 mm 1 mps 715 mmHg 81%
    09:00 +10°C° 0 mm 2 mps 715 mmHg 72%
    10:00 +13°C° 0 mm 2 mps 714 mmHg 63%
    11:00 +13°C° 0 mm 3 mps 714 mmHg 60%
    12:00 +13°C° 0 mm 3 mps 713 mmHg 57%
    13:00 +14°C° 0 mm 4 mps 713 mmHg 54%
    14:00 +14°C° 0 mm 4 mps 713 mmHg 56%
    15:00 +14°C° 0 mm 4 mps 712 mmHg 58%
    16:00 +14°C° 0 mm 4 mps 712 mmHg 59%
    17:00 +12°C° 0 mm 4 mps 712 mmHg 68%
    18:00 +10°C° 0 mm 3 mps 712 mmHg 77%
    19:00 +8°C° 0 mm 3 mps 712 mmHg 86%
    20:00 +7°C° 0 mm 2 mps 712 mmHg 88%
    21:00 +7°C° 0 mm 1 mps 712 mmHg 91%
    22:00 +6°C° 0 mm 1 mps 712 mmHg 94%
    23:00 +5°C° 0 mm 1 mps 712 mmHg 94%

    27 September, Friday

    Time Temperature Precipitation Wind Pressure Humidity
    00:00 +5°C° 0 mm 1 mps 711 mmHg 94%
    01:00 +5°C° 0 mm 1 mps 711 mmHg 95%
    02:00 +4°C° 0 mm 1 mps 711 mmHg 95%
    03:00 +4°C° 0 mm 1 mps 710 mmHg 95%
    04:00 +4°C° 0 mm 1 mps 710 mmHg 95%
    05:00 +5°C° 0 mm 1 mps 710 mmHg 92%
    06:00 +6°C° 0 mm 1 mps 710 mmHg 89%
    07:00 +7°C° 0 mm 1 mps 711 mmHg 85%
    08:00 +8°C° 0 mm 2 mps 711 mmHg 75%
    09:00 +11°C° 0 mm 3 mps 711 mmHg 66%
    10:00 +14°C° 0 mm 4 mps 711 mmHg 56%
    11:00 +17°C° 0 mm 4 mps 711 mmHg 51%
    12:00 +17°C° 0 mm 5 mps 711 mmHg 47%
    13:00 +19°C° 0 mm 6 mps 711 mmHg 43%
    14:00 +19°C° 0 mm 5 mps 710 mmHg 47%
    15:00 +18°C° 0 mm 4 mps 710 mmHg 50%
    16:00 +18°C° 0 mm 4 mps 710 mmHg 54%
    17:00 +16°C° 0 mm 3 mps 710 mmHg 60%
    18:00 +14°C° 0 mm 2 mps 711 mmHg 65%
    19:00 +12°C° 0 mm 2 mps 711 mmHg 71%
    20:00 +11°C° 0 mm 1 mps 711 mmHg 73%
    21:00 +11°C° 0 mm 1 mps 712 mmHg 75%
    22:00 +10°C° 0 mm 1 mps 712 mmHg 77%
    23:00 +9°C° 0 mm 0 mps 712 mmHg 79%
    Show more